Flag for Sweden Weather past 2 weeks in Växjö, Sweden

Now
68 °F

Passing clouds.


Feels Like: 68 °F
Forecast: 43 / 65 °F
Wind: 6 mph from North

Location: Vaxjo Airport

Current Time: Sep 1, 2014 at 4:20:35 PM

Latest Report: Sep 1, 2014 at 3:50 PM


Visibility: N/A

Pressure: 30.15 "Hg

Humidity: 49%

Dew point: 48 °F

Location of VäxjöLocation

Historic Weather in Växjö — Graph

°F

Växjö temperature yesterday

Maximum temperature yesterday: 63 °F (at 1:50 PM)
Minimum temperature yesterday: 54 °F (at 5:20 AM)
Average temperature yesterday: 57 °F

Past Weeks' High & Low Weather Summary

 TemperatureHumidityPressure
High68 °F (Aug 27, 2:20 PM)100% (Aug 24, 4:50 AM)30.18 "Hg (Aug 24, 4:50 AM)
Low41 °F (Aug 29, 4:50 AM)40% (Aug 29, 1:50 PM)29.33 "Hg (Aug 18, 5:50 PM)
Average55 °F81%29.77 "Hg
* Reported Aug 17 3:20 PM — Sep 1 3:20 PM, Växjö, Weather by CustomWeather, © 2014

Note: Actual official high and low records may vary slightly from our data, if they occured in-between our weather recording intervals... More about our weather records

Advertising

Växjö weather history for previous 24 hours

 ConditionsComfort  
Time TempWeatherWind HumidityBarometerVisibility
3:20 PM
Sep 1
68 °FPassing clouds.3 mph46%30.18 "HgN/A
2:50 PM66 °FScattered clouds.7 mph49%30.18 "HgN/A
2:20 PM66 °FScattered clouds.7 mph56%30.18 "HgN/A
1:50 PM68 °FScattered clouds.7 mph49%30.18 "HgN/A
1:20 PM64 °FScattered clouds.6 mph52%30.18 "HgN/A
12:50 PM63 °FPassing clouds.6 mph59%30.18 "HgN/A
12:20 PM64 °FPassing clouds.7 mph56%30.18 "HgN/A
11:50 AM64 °FPassing clouds.6 mph60%30.18 "HgN/A
11:20 AM63 °FScattered clouds.7 mph64%30.18 "HgN/A
10:50 AM64 °FScattered clouds.7 mph60%30.15 "HgN/A
10:20 AM59 °FPartly sunny.8 mph72%30.15 "HgN/A
9:50 AM59 °FBroken clouds.10 mph77%30.15 "HgN/A
9:20 AM57 °FPartly sunny.8 mph82%30.15 "HgN/A
8:50 AM57 °FCloudy.7 mph82%30.15 "HgN/A
8:20 AM55 °FLow clouds.7 mph88%30.15 "HgN/A
7:50 AM55 °FPartly sunny.7 mph88%30.15 "HgN/A
7:20 AM54 °FScattered clouds.6 mph94%30.15 "HgN/A
6:50 AM54 °FPassing clouds.6 mph94%30.15 "HgN/A
6:20 AM54 °FPartly cloudy.6 mph94%30.12 "HgN/A
5:50 AM54 °FPartly cloudy.7 mph88%30.12 "HgN/A
5:20 AM52 °FPassing clouds.7 mph94%30.12 "HgN/A
4:50 AM54 °FPassing clouds.6 mph88%30.12 "HgN/A
4:20 AM54 °FPassing clouds.7 mph88%30.12 "HgN/A
3:50 AM54 °FPassing clouds.8 mph88%30.12 "HgN/A
3:20 AM54 °FPassing clouds.7 mph88%30.09 "HgN/A
2:50 AM55 °FPassing clouds.9 mph82%30.09 "HgN/A
2:20 AM55 °FPassing clouds.9 mph82%30.09 "HgN/A
1:50 AM54 °FPassing clouds.8 mph88%30.09 "HgN/A
1:20 AM55 °FPassing clouds.8 mph82%30.12 "HgN/A
12:50 AM55 °FPassing clouds.9 mph82%30.09 "HgN/A
12:20 AM55 °FPassing clouds.9 mph88%30.09 "HgN/A
11:20 PM
Aug 31
55 °FPassing clouds.8 mph88%30.09 "HgN/A
10:50 PM55 °FPartly cloudy.9 mph88%30.09 "HgN/A
10:20 PM55 °FPassing clouds.7 mph88%30.07 "HgN/A
9:50 PM55 °FPartly cloudy.6 mph88%30.07 "HgN/A
9:20 PM57 °FPassing clouds.7 mph82%30.07 "HgN/A
8:50 PM57 °FPartly sunny.8 mph82%30.07 "HgN/A
8:20 PM57 °FBroken clouds.8 mph82%30.07 "HgN/A
7:50 PM57 °FBroken clouds.8 mph82%30.04 "HgN/A
7:20 PM59 °FOvercast.9 mph77%30.04 "HgN/A
6:50 PM59 °FMore clouds than sun.10 mph77%30.04 "HgN/A
6:20 PM59 °FPartly sunny.9 mph77%30.04 "HgN/A
5:50 PM59 °FPartly sunny.9 mph77%30.04 "HgN/A
5:20 PM59 °FPartly sunny.9 mph77%30.04 "HgN/A
4:50 PM57 °FPartly sunny.9 mph77%30.04 "HgN/A
4:20 PM59 °FSprinkles. Partly sunny.12 mph77%30.04 "HgN/A
Weather by CustomWeather, © 2014

See weather overviewHow to use our weather pages